Location: Banksville Park
(38.5557°N, 75.1182°W)
Time: 22:58:02
(UTC+00:00)

ATLAS 2AS CENTAUR R/B - Pass Details

Date: 19 September 2020
Orbit: 939 x 1273 km, 63.7° (Epoch: 27 October)

Event Time Altitude Azimuth Distance (km) Brightness Sun altitude
Rises 00:31:50 0° 176° (S) 4,143 5.6 -17.9°
Reaches altitude 10° 00:34:58 10° 166° (SSE) 3,213 4.9 -18.5°
Enters shadow 00:40:38 29° 120° (ESE) 2,138 3.7 -19.6°
Exits shadow 00:46:12 17° 62° (ENE) 2,773 4.5 -20.6°
Drops below altitude 10° 00:48:04 10° 53° (NE) 3,264 4.9 -21.0°
Sets 00:51:15 0° 43° (NE) 4,220 5.6 -21.5°
